Wetterdaten: Montag, 03.05.2010
Datum Zeit Temp. A. Feuchte A. Luftdruck Regen Wind Richtung Richtung Sonnenschein UV Solar Windben
03.05.2010 00:00 9,3 C 93 % 1005,9 hPa 0,0 mm 0,0 km/h (0 Bft) N 0 0 min 0 UV-I 0 W/m 0,0 km/h (0 Bft)
03.05.2010 00:10 9,3 C 93 % 1006,0 hPa 0,0 mm 0,0 km/h (0 Bft) N 0 0 min 0 UV-I 0 W/m 0,0 km/h (0 Bft)
03.05.2010 00:20 9,1 C 93 % 1006,0 hPa 0,0 mm 0,0 km/h (0 Bft) N 0 0 min 0 UV-I 0 W/m 0,0 km/h (0 Bft)
03.05.2010 00:30 9,0 C 93 % 1006,2 hPa 0,0 mm 0,0 km/h (0 Bft) O-SO 112 0 min 0 UV-I 0 W/m 1,6 km/h (1 Bft)
03.05.2010 00:40 8,9 C 93 % 1006,3 hPa 0,0 mm 0,0 km/h (0 Bft) N 0 0 min 0 UV-I 0 W/m 0,0 km/h (0 Bft)
03.05.2010 00:50 8,6 C 93 % 1006,6 hPa 0,0 mm 0,0 km/h (0 Bft) N 0 0 min 0 UV-I 0 W/m 0,0 km/h (0 Bft)
03.05.2010 01:00 8,3 C 93 % 1006,4 hPa 0,0 mm 0,0 km/h (0 Bft) N 0 0 min 0 UV-I 0 W/m 0,0 km/h (0 Bft)
03.05.2010 01:10 8,2 C 93 % 1006,5 hPa 0,0 mm 0,0 km/h (0 Bft) N 0 0 min 0 UV-I 0 W/m 0,0 km/h (0 Bft)
03.05.2010 01:20 8,2 C 93 % 1006,7 hPa 0,0 mm 0,0 km/h (0 Bft) N 0 0 min 0 UV-I 0 W/m 0,0 km/h (0 Bft)
03.05.2010 01:30 8,0 C 93 % 1006,8 hPa 0,0 mm 0,0 km/h (0 Bft) N 0 0 min 0 UV-I 0 W/m 0,0 km/h (0 Bft)
03.05.2010 01:40 7,8 C 93 % 1006,9 hPa 0,0 mm 0,0 km/h (0 Bft) N 0 0 min 0 UV-I 0 W/m 0,0 km/h (0 Bft)
03.05.2010 01:50 7,7 C 94 % 1007,1 hPa 0,0 mm 0,0 km/h (0 Bft) N 0 0 min 0 UV-I 0 W/m 0,0 km/h (0 Bft)
03.05.2010 02:00 7,7 C 94 % 1007,1 hPa 0,0 mm 0,0 km/h (0 Bft) N 0 0 min 0 UV-I 0 W/m 0,0 km/h (0 Bft)
03.05.2010 02:10 7,8 C 94 % 1007,3 hPa 0,0 mm 0,0 km/h (0 Bft) N 0 0 min 0 UV-I 0 W/m 0,0 km/h (0 Bft)
03.05.2010 02:20 7,7 C 93 % 1007,5 hPa 0,0 mm 0,0 km/h (0 Bft) N 0 0 min 0 UV-I 0 W/m 0,0 km/h (0 Bft)
03.05.2010 02:30 7,6 C 93 % 1007,6 hPa 0,0 mm 0,0 km/h (0 Bft) N 0 0 min 0 UV-I 0 W/m 0,0 km/h (0 Bft)
03.05.2010 02:40 7,4 C 94 % 1007,7 hPa 0,0 mm 0,0 km/h (0 Bft) N 0 0 min 0 UV-I 0 W/m 0,0 km/h (0 Bft)
03.05.2010 02:50 7,3 C 93 % 1007,6 hPa 0,0 mm 0,0 km/h (0 Bft) N 0 0 min 0 UV-I 0 W/m 0,0 km/h (0 Bft)
03.05.2010 03:00 6,9 C 93 % 1007,6 hPa 0,0 mm 0,0 km/h (0 Bft) N 0 0 min 0 UV-I 0 W/m 0,0 km/h (0 Bft)
03.05.2010 03:10 6,6 C 94 % 1007,6 hPa 0,0 mm 0,0 km/h (0 Bft) N 0 0 min 0 UV-I 0 W/m 0,0 km/h (0 Bft)
03.05.2010 03:20 6,5 C 94 % 1007,5 hPa 0,0 mm 0,0 km/h (0 Bft) N 0 0 min 0 UV-I 0 W/m 0,0 km/h (0 Bft)
03.05.2010 03:30 6,5 C 94 % 1007,6 hPa 0,0 mm 0,0 km/h (0 Bft) N 0 0 min 0 UV-I 0 W/m 0,0 km/h (0 Bft)
03.05.2010 03:40 6,3 C 94 % 1007,6 hPa 0,0 mm 0,0 km/h (0 Bft) N 0 0 min 0 UV-I 0 W/m 0,0 km/h (0 Bft)
03.05.2010 03:50 6,2 C 94 % 1007,7 hPa 0,0 mm 0,0 km/h (0 Bft) N 0 0 min 0 UV-I 0 W/m 0,0 km/h (0 Bft)
03.05.2010 04:00 6,4 C 94 % 1007,3 hPa 0,0 mm 0,0 km/h (0 Bft) N 0 0 min 0 UV-I 0 W/m 0,0 km/h (0 Bft)
03.05.2010 04:10 6,3 C 94 % 1007,4 hPa 0,0 mm 0,0 km/h (0 Bft) N 0 0 min 0 UV-I 0 W/m 0,0 km/h (0 Bft)
03.05.2010 04:20 6,1 C 94 % 1007,3 hPa 0,0 mm 0,0 km/h (0 Bft) N 0 0 min 0 UV-I 0 W/m 0,0 km/h (0 Bft)
03.05.2010 04:30 5,9 C 94 % 1007,4 hPa 0,0 mm 0,0 km/h (0 Bft) N 0 0 min 0 UV-I 0 W/m 0,0 km/h (0 Bft)
03.05.2010 04:40 5,9 C 94 % 1007,4 hPa 0,0 mm 0,0 km/h (0 Bft) N 0 0 min 0 UV-I 0 W/m 0,0 km/h (0 Bft)
03.05.2010 04:50 5,9 C 94 % 1007,6 hPa 0,0 mm 0,0 km/h (0 Bft) N 0 0 min 0 UV-I 0 W/m 0,0 km/h (0 Bft)
03.05.2010 05:00 5,8 C 94 % 1007,8 hPa 0,0 mm 0,0 km/h (0 Bft) N 0 0 min 0 UV-I 0 W/m 0,0 km/h (0 Bft)
03.05.2010 05:10 5,7 C 94 % 1007,9 hPa 0,0 mm 0,0 km/h (0 Bft) N 0 0 min 0 UV-I 0 W/m 0,0 km/h (0 Bft)
03.05.2010 05:20 5,4 C 94 % 1007,9 hPa 0,0 mm 0,0 km/h (0 Bft) O-SO 112 0 min 0 UV-I 0 W/m 1,6 km/h (1 Bft)
03.05.2010 05:30 5,4 C 94 % 1008,0 hPa 0,0 mm 0,0 km/h (0 Bft) N 0 0 min 0 UV-I 0 W/m 0,0 km/h (0 Bft)
03.05.2010 05:40 5,3 C 94 % 1008,0 hPa 0,0 mm 0,0 km/h (0 Bft) N 0 0 min 0 UV-I 0 W/m 0,0 km/h (0 Bft)
03.05.2010 05:50 5,2 C 94 % 1008,1 hPa 0,0 mm 0,0 km/h (0 Bft) N 0 0 min 0 UV-I 0 W/m 0,0 km/h (0 Bft)
03.05.2010 06:00 5,1 C 94 % 1008,2 hPa 0,0 mm 0,0 km/h (0 Bft) N 0 0 min 0 UV-I 0 W/m 0,0 km/h (0 Bft)
03.05.2010 06:10 5,1 C 94 % 1008,3 hPa 0,0 mm 0,0 km/h (0 Bft) N 0 0 min 0 UV-I 0 W/m 0,0 km/h (0 Bft)
03.05.2010 06:20 5,2 C 94 % 1008,0 hPa 0,0 mm 0,0 km/h (0 Bft) N 0 0 min 0 UV-I 5 W/m 0,0 km/h (0 Bft)
03.05.2010 06:30 5,3 C 94 % 1007,6 hPa 0,0 mm 0,0 km/h (0 Bft) N 0 0 min 0 UV-I 14 W/m 0,0 km/h (0 Bft)
03.05.2010 06:40 5,2 C 94 % 1007,7 hPa 0,0 mm 0,0 km/h (0 Bft) N 0 0 min 0 UV-I 21 W/m 0,0 km/h (0 Bft)
03.05.2010 06:50 5,1 C 94 % 1007,8 hPa 0,0 mm 0,0 km/h (0 Bft) N 0 0 min 0 UV-I 26 W/m 0,0 km/h (0 Bft)
03.05.2010 07:00 5,2 C 94 % 1007,5 hPa 0,0 mm 0,0 km/h (0 Bft) N 0 0 min 0 UV-I 54 W/m 0,0 km/h (0 Bft)
03.05.2010 07:10 5,5 C 94 % 1007,3 hPa 0,0 mm 0,0 km/h (0 Bft) N 0 10 min 0 UV-I 100 W/m 0,0 km/h (0 Bft)
03.05.2010 07:20 6,1 C 94 % 1007,8 hPa 0,0 mm 0,0 km/h (0 Bft) O-SO 112 0 min 0 UV-I 74 W/m 1,6 km/h (1 Bft)
03.05.2010 07:30 6,3 C 94 % 1008,3 hPa 0,0 mm 0,0 km/h (0 Bft) N 0 0 min 0 UV-I 83 W/m 0,0 km/h (0 Bft)
03.05.2010 07:40 6,6 C 94 % 1008,7 hPa 0,0 mm 0,0 km/h (0 Bft) O-SO 112 0 min 0 UV-I 100 W/m 1,6 km/h (1 Bft)
03.05.2010 07:50 6,8 C 94 % 1008,5 hPa 0,0 mm 0,0 km/h (0 Bft) O-SO 112 0 min 0 UV-I 107 W/m 3,2 km/h (1 Bft)
03.05.2010 08:00 6,9 C 94 % 1008,8 hPa 0,0 mm 0,0 km/h (0 Bft) O-SO 112 0 min 0 UV-I 98 W/m 1,6 km/h (1 Bft)
03.05.2010 08:10 7,1 C 94 % 1008,8 hPa 0,0 mm 0,0 km/h (0 Bft) O-SO 112 0 min 0 UV-I 102 W/m 1,6 km/h (1 Bft)
03.05.2010 08:20 7,3 C 94 % 1009,0 hPa 0,0 mm 0,0 km/h (0 Bft) S-SW 202 0 min 0 UV-I 100 W/m 6,4 km/h (2 Bft)
03.05.2010 08:30 7,3 C 94 % 1009,1 hPa 0,0 mm 1,6 km/h (1 Bft) W-SW 247 0 min 1 UV-I 118 W/m 8,0 km/h (2 Bft)
03.05.2010 08:40 7,4 C 94 % 1009,2 hPa 0,0 mm 1,6 km/h (1 Bft) W 270 0 min 1 UV-I 109 W/m 8,0 km/h (2 Bft)
03.05.2010 08:50 7,3 C 94 % 1009,2 hPa 0,0 mm 1,6 km/h (1 Bft) W-SW 247 0 min 1 UV-I 98 W/m 8,0 km/h (2 Bft)
03.05.2010 09:00 7,4 C 94 % 1009,3 hPa 0,0 mm 1,6 km/h (1 Bft) S-SW 202 0 min 1 UV-I 120 W/m 4,8 km/h (1 Bft)
03.05.2010 09:10 7,3 C 94 % 1009,3 hPa 0,0 mm 0,0 km/h (0 Bft) W-NW 292 0 min 1 UV-I 105 W/m 4,8 km/h (1 Bft)
03.05.2010 09:20 7,3 C 94 % 1009,2 hPa 0,0 mm 0,0 km/h (0 Bft) NW 315 0 min 1 UV-I 139 W/m 4,8 km/h (1 Bft)
03.05.2010 09:30 7,5 C 94 % 1009,3 hPa 0,0 mm 1,6 km/h (1 Bft) W-NW 292 0 min 1 UV-I 98 W/m 9,7 km/h (2 Bft)
03.05.2010 09:40 7,5 C 94 % 1009,3 hPa 0,0 mm 0,0 km/h (0 Bft) W-NW 292 0 min 1 UV-I 91 W/m 4,8 km/h (1 Bft)
03.05.2010 09:50 7,5 C 94 % 1009,4 hPa 0,0 mm 0,0 km/h (0 Bft) N 360 0 min 1 UV-I 90 W/m 6,4 km/h (2 Bft)
03.05.2010 10:00 7,4 C 94 % 1009,4 hPa 0,0 mm 1,6 km/h (1 Bft) W 270 0 min 1 UV-I 114 W/m 9,7 km/h (2 Bft)
03.05.2010 10:10 7,4 C 93 % 1009,6 hPa 0,0 mm 0,0 km/h (0 Bft) W-NW 292 0 min 1 UV-I 127 W/m 4,8 km/h (1 Bft)
03.05.2010 10:20 7,6 C 94 % 1009,7 hPa 0,0 mm 0,0 km/h (0 Bft) W-NW 292 0 min 1 UV-I 121 W/m 4,8 km/h (1 Bft)
03.05.2010 10:30 7,7 C 93 % 1009,8 hPa 0,0 mm 0,0 km/h (0 Bft) W-NW 292 0 min 1 UV-I 114 W/m 3,2 km/h (1 Bft)
03.05.2010 10:40 7,7 C 93 % 1009,8 hPa 0,0 mm 1,6 km/h (1 Bft) W-SW 247 0 min 1 UV-I 163 W/m 8,0 km/h (2 Bft)
03.05.2010 10:50 7,8 C 93 % 1009,9 hPa 0,0 mm 1,6 km/h (1 Bft) N-NW 337 0 min 1 UV-I 135 W/m 4,8 km/h (1 Bft)
03.05.2010 11:00 8,1 C 92 % 1009,9 hPa 0,0 mm 0,0 km/h (0 Bft) N 360 0 min 1 UV-I 158 W/m 3,2 km/h (1 Bft)
03.05.2010 11:10 7,8 C 92 % 1010,1 hPa 0,0 mm 1,6 km/h (1 Bft) NW 315 0 min 1 UV-I 165 W/m 4,8 km/h (1 Bft)
03.05.2010 11:20 7,9 C 92 % 1010,2 hPa 0,0 mm 1,6 km/h (1 Bft) W 270 0 min 1 UV-I 171 W/m 9,7 km/h (2 Bft)
03.05.2010 11:30 7,9 C 92 % 1010,3 hPa 0,0 mm 3,2 km/h (1 Bft) W-SW 247 0 min 1 UV-I 179 W/m 8,0 km/h (2 Bft)
03.05.2010 11:40 8,0 C 92 % 1010,3 hPa 0,0 mm 1,6 km/h (1 Bft) W-SW 247 0 min 1 UV-I 132 W/m 4,8 km/h (1 Bft)
03.05.2010 11:50 8,2 C 91 % 1010,3 hPa 0,0 mm 1,6 km/h (1 Bft) S-SW 202 0 min 1 UV-I 128 W/m 6,4 km/h (2 Bft)
03.05.2010 12:00 8,1 C 91 % 1010,4 hPa 0,0 mm 1,6 km/h (1 Bft) S-SW 202 0 min 1 UV-I 121 W/m 6,4 km/h (2 Bft)
03.05.2010 12:10 8,3 C 91 % 1010,4 hPa 0,0 mm 0,0 km/h (0 Bft) W-SW 247 0 min 1 UV-I 132 W/m 4,8 km/h (1 Bft)
03.05.2010 12:20 8,4 C 91 % 1010,3 hPa 0,0 mm 0,0 km/h (0 Bft) W-SW 247 0 min 1 UV-I 149 W/m 3,2 km/h (1 Bft)
03.05.2010 12:30 8,4 C 90 % 1010,4 hPa 0,0 mm 0,0 km/h (0 Bft) W-SW 247 0 min 1 UV-I 113 W/m 4,8 km/h (1 Bft)
03.05.2010 12:40 8,4 C 90 % 1010,1 hPa 0,0 mm 1,6 km/h (1 Bft) W-SW 247 0 min 1 UV-I 91 W/m 6,4 km/h (2 Bft)
03.05.2010 12:50 8,4 C 89 % 1010,5 hPa 0,0 mm 1,6 km/h (1 Bft) S-SW 202 0 min 1 UV-I 128 W/m 8,0 km/h (2 Bft)
03.05.2010 13:00 8,6 C 89 % 1010,5 hPa 0,0 mm 1,6 km/h (1 Bft) S-SW 202 0 min 1 UV-I 113 W/m 4,8 km/h (1 Bft)
03.05.2010 13:10 8,7 C 88 % 1010,5 hPa 0,0 mm 0,0 km/h (0 Bft) N-NW 337 0 min 1 UV-I 111 W/m 3,2 km/h (1 Bft)
03.05.2010 13:20 8,8 C 88 % 1010,5 hPa 0,0 mm 0,0 km/h (0 Bft) N-NW 337 0 min 1 UV-I 123 W/m 3,2 km/h (1 Bft)
03.05.2010 13:30 8,8 C 88 % 1010,5 hPa 0,0 mm 1,6 km/h (1 Bft) W 270 0 min 1 UV-I 167 W/m 6,4 km/h (2 Bft)
03.05.2010 13:40 9,1 C 87 % 1010,6 hPa 0,0 mm 0,0 km/h (0 Bft) W 270 0 min 1 UV-I 156 W/m 1,6 km/h (1 Bft)
03.05.2010 13:50 9,0 C 86 % 1010,6 hPa 0,0 mm 0,0 km/h (0 Bft) W 270 0 min 1 UV-I 132 W/m 3,2 km/h (1 Bft)
03.05.2010 14:00 9,2 C 86 % 1010,6 hPa 0,0 mm 1,6 km/h (1 Bft) NW 315 0 min 1 UV-I 134 W/m 6,4 km/h (2 Bft)
03.05.2010 14:10 9,3 C 85 % 1010,6 hPa 0,0 mm 0,0 km/h (0 Bft) N-NW 337 0 min 1 UV-I 178 W/m 3,2 km/h (1 Bft)
03.05.2010 14:20 9,4 C 85 % 1010,6 hPa 0,0 mm 0,0 km/h (0 Bft) N-NW 337 0 min 2 UV-I 246 W/m 3,2 km/h (1 Bft)
03.05.2010 14:30 9,8 C 85 % 1010,6 hPa 0,0 mm 1,6 km/h (1 Bft) N 360 0 min 2 UV-I 302 W/m 6,4 km/h (2 Bft)
03.05.2010 14:40 10,2 C 85 % 1010,7 hPa 0,0 mm 0,0 km/h (0 Bft) N 360 0 min 2 UV-I 295 W/m 3,2 km/h (1 Bft)
03.05.2010 14:50 10,2 C 83 % 1010,7 hPa 0,0 mm 0,0 km/h (0 Bft) N 360 0 min 2 UV-I 214 W/m 3,2 km/h (1 Bft)
03.05.2010 15:00 10,1 C 83 % 1010,9 hPa 0,0 mm 0,0 km/h (0 Bft) N 360 0 min 2 UV-I 190 W/m 1,6 km/h (1 Bft)
03.05.2010 15:10 10,1 C 82 % 1011,0 hPa 0,0 mm 0,0 km/h (0 Bft) W-SW 247 0 min 1 UV-I 169 W/m 4,8 km/h (1 Bft)
03.05.2010 15:20 10,1 C 82 % 1011,1 hPa 0,0 mm 1,6 km/h (1 Bft) W-NW 292 0 min 1 UV-I 120 W/m 4,8 km/h (1 Bft)
03.05.2010 15:30 10,1 C 82 % 1011,2 hPa 0,0 mm 1,6 km/h (1 Bft) NW 315 0 min 1 UV-I 79 W/m 6,4 km/h (2 Bft)
03.05.2010 15:40 9,9 C 82 % 1011,3 hPa 0,0 mm 0,0 km/h (0 Bft) NW 315 0 min 0 UV-I 49 W/m 3,2 km/h (1 Bft)
03.05.2010 15:50 9,8 C 83 % 1011,3 hPa 0,0 mm 0,0 km/h (0 Bft) NW 315 0 min 1 UV-I 63 W/m 3,2 km/h (1 Bft)
03.05.2010 16:00 9,9 C 83 % 1011,4 hPa 0,0 mm 0,0 km/h (0 Bft) NW 315 0 min 1 UV-I 76 W/m 4,8 km/h (1 Bft)
03.05.2010 16:10 9,9 C 83 % 1011,4 hPa 0,0 mm 0,0 km/h (0 Bft) NW 315 0 min 1 UV-I 98 W/m 3,2 km/h (1 Bft)
03.05.2010 16:20 10,0 C 84 % 1011,6 hPa 0,0 mm 0,0 km/h (0 Bft) NW 315 0 min 1 UV-I 98 W/m 1,6 km/h (1 Bft)
03.05.2010 16:30 10,1 C 84 % 1011,7 hPa 0,3 mm 0,0 km/h (0 Bft) NW 315 0 min 1 UV-I 107 W/m 1,6 km/h (1 Bft)
03.05.2010 16:40 10,1 C 86 % 1011,8 hPa 0,0 mm 0,0 km/h (0 Bft) NW 315 0 min 1 UV-I 107 W/m 3,2 km/h (1 Bft)
03.05.2010 16:50 10,1 C 86 % 1011,8 hPa 0,0 mm 0,0 km/h (0 Bft) NW 315 0 min 1 UV-I 77 W/m 1,6 km/h (1 Bft)
03.05.2010 17:00 10,0 C 87 % 1011,9 hPa 0,0 mm 0,0 km/h (0 Bft) NW 315 0 min 1 UV-I 76 W/m 1,6 km/h (1 Bft)
03.05.2010 17:10 10,1 C 87 % 1011,9 hPa 0,3 mm 0,0 km/h (0 Bft) NW 315 0 min 1 UV-I 69 W/m 1,6 km/h (1 Bft)
03.05.2010 17:20 10,0 C 87 % 1011,9 hPa 0,0 mm 0,0 km/h (0 Bft) N 0 0 min 0 UV-I 67 W/m 0,0 km/h (0 Bft)
03.05.2010 17:30 9,9 C 87 % 1012,0 hPa 0,0 mm 0,0 km/h (0 Bft) NW 315 0 min 0 UV-I 67 W/m 1,6 km/h (1 Bft)
03.05.2010 17:40 9,9 C 87 % 1012,0 hPa 0,0 mm 0,0 km/h (0 Bft) NW 315 0 min 0 UV-I 56 W/m 1,6 km/h (1 Bft)
03.05.2010 17:50 9,8 C 88 % 1012,0 hPa 0,0 mm 0,0 km/h (0 Bft) NW 315 0 min 0 UV-I 54 W/m 3,2 km/h (1 Bft)
03.05.2010 18:00 9,8 C 88 % 1012,0 hPa 0,3 mm 0,0 km/h (0 Bft) NW 315 0 min 0 UV-I 72 W/m 3,2 km/h (1 Bft)
03.05.2010 18:10 9,7 C 88 % 1012,0 hPa 0,0 mm 0,0 km/h (0 Bft) NW 315 0 min 0 UV-I 77 W/m 1,6 km/h (1 Bft)
03.05.2010 18:20 9,7 C 88 % 1012,1 hPa 0,0 mm 0,0 km/h (0 Bft) NW 315 0 min 1 UV-I 83 W/m 3,2 km/h (1 Bft)
03.05.2010 18:30 9,7 C 88 % 1012,1 hPa 0,0 mm 0,0 km/h (0 Bft) NW 315 0 min 0 UV-I 77 W/m 1,6 km/h (1 Bft)
03.05.2010 18:40 9,7 C 88 % 1012,2 hPa 0,0 mm 0,0 km/h (0 Bft) NW 315 0 min 0 UV-I 58 W/m 3,2 km/h (1 Bft)
03.05.2010 18:50 9,7 C 88 % 1012,3 hPa 0,0 mm 0,0 km/h (0 Bft) NW 315 0 min 0 UV-I 39 W/m 1,6 km/h (1 Bft)
03.05.2010 19:00 9,7 C 89 % 1012,2 hPa 0,0 mm 0,0 km/h (0 Bft) NW 315 0 min 0 UV-I 26 W/m 3,2 km/h (1 Bft)
03.05.2010 19:10 9,7 C 89 % 1012,3 hPa 0,0 mm 0,0 km/h (0 Bft) NW 315 0 min 0 UV-I 19 W/m 3,2 km/h (1 Bft)
03.05.2010 19:20 9,6 C 89 % 1012,4 hPa 0,3 mm 0,0 km/h (0 Bft) NW 315 0 min 0 UV-I 14 W/m 1,6 km/h (1 Bft)
03.05.2010 19:30 9,6 C 90 % 1012,5 hPa 0,0 mm 0,0 km/h (0 Bft) N 0 0 min 0 UV-I 11 W/m 0,0 km/h (0 Bft)
03.05.2010 19:40 9,7 C 90 % 1012,6 hPa 0,0 mm 0,0 km/h (0 Bft) N 0 0 min 0 UV-I 9 W/m 0,0 km/h (0 Bft)
03.05.2010 19:50 9,5 C 90 % 1012,8 hPa 0,0 mm 0,0 km/h (0 Bft) NW 315 0 min 0 UV-I 9 W/m 1,6 km/h (1 Bft)
03.05.2010 20:00 9,5 C 91 % 1013,0 hPa 0,0 mm 0,0 km/h (0 Bft) NW 315 0 min 0 UV-I 0 W/m 1,6 km/h (1 Bft)
03.05.2010 20:10 9,4 C 91 % 1013,1 hPa 0,0 mm 1,6 km/h (1 Bft) NW 315 0 min 0 UV-I 0 W/m 1,6 km/h (1 Bft)
03.05.2010 20:20 9,4 C 91 % 1013,2 hPa 0,0 mm 0,0 km/h (0 Bft) NW 315 0 min 0 UV-I 0 W/m 0,0 km/h (0 Bft)
03.05.2010 20:30 9,4 C 91 % 1013,2 hPa 0,0 mm 1,6 km/h (1 Bft) NW 315 0 min 0 UV-I 0 W/m 1,6 km/h (1 Bft)
03.05.2010 20:40 9,3 C 91 % 1013,4 hPa 0,0 mm 0,0 km/h (0 Bft) NW 315 0 min 0 UV-I 0 W/m 0,0 km/h (0 Bft)
03.05.2010 20:50 9,2 C 91 % 1013,4 hPa 0,0 mm 1,6 km/h (1 Bft) NW 315 0 min 0 UV-I 0 W/m 0,0 km/h (0 Bft)
03.05.2010 21:10 9,1 C 91 % 1013,4 hPa 0,0 mm 0,0 km/h (0 Bft) NW 315 0 min 0 UV-I 0 W/m 0,0 km/h (0 Bft)
03.05.2010 21:20 8,9 C 91 % 1013,6 hPa 0,0 mm 1,6 km/h (1 Bft) NW 315 0 min 0 UV-I 0 W/m 1,6 km/h (1 Bft)
03.05.2010 21:30 8,7 C 92 % 1014,0 hPa 0,3 mm 0,0 km/h (0 Bft) W-SW 247 0 min 0 UV-I 0 W/m 6,4 km/h (2 Bft)
03.05.2010 21:40 8,7 C 92 % 1014,0 hPa 0,8 mm 1,6 km/h (1 Bft) W-SW 247 0 min 0 UV-I 0 W/m 6,4 km/h (2 Bft)
03.05.2010 21:50 8,6 C 92 % 1014,2 hPa 0,8 mm 1,6 km/h (1 Bft) W-SW 247 0 min 0 UV-I 0 W/m 11,3 km/h (2 Bft)
03.05.2010 22:00 8,4 C 92 % 1014,2 hPa 1,0 mm 1,6 km/h (1 Bft) SW 225 0 min 0 UV-I 0 W/m 11,3 km/h (2 Bft)
03.05.2010 22:10 8,2 C 92 % 1014,4 hPa 0,5 mm 3,2 km/h (1 Bft) W-SW 247 0 min 0 UV-I 0 W/m 8,0 km/h (2 Bft)
03.05.2010 22:20 8,1 C 92 % 1014,4 hPa 1,0 mm 1,6 km/h (1 Bft) S-SW 202 0 min 0 UV-I 0 W/m 8,0 km/h (2 Bft)
03.05.2010 22:30 8,1 C 92 % 1014,5 hPa 0,8 mm 0,3 km/h (0 Bft) S 191 0 min 0 UV-I 0 W/m 3,2 km/h (1 Bft)
03.05.2010 22:40 8,1 C 92 % 1014,6 hPa 0,3 mm 0,0 km/h (0 Bft) SW 225 0 min 0 UV-I 0 W/m 4,8 km/h (1 Bft)
03.05.2010 22:50 8,2 C 92 % 1014,7 hPa 0,5 mm 0,0 km/h (0 Bft) SW 225 0 min 0 UV-I 0 W/m 3,2 km/h (1 Bft)
03.05.2010 23:00 8,2 C 92 % 1014,8 hPa 1,0 mm 0,0 km/h (0 Bft) SW 225 0 min 0 UV-I 0 W/m 1,6 km/h (1 Bft)
03.05.2010 23:10 8,2 C 93 % 1014,9 hPa 1,3 mm 0,0 km/h (0 Bft) SW 225 0 min 0 UV-I 0 W/m 1,6 km/h (1 Bft)
03.05.2010 23:20 8,2 C 93 % 1014,8 hPa 1,3 mm 1,0 km/h (0 Bft) S 169 0 min 0 UV-I 0 W/m 6,4 km/h (2 Bft)
03.05.2010 23:30 8,2 C 93 % 1014,8 hPa 1,0 mm 0,8 km/h (0 Bft) S 190 0 min 0 UV-I 0 W/m 8,0 km/h (2 Bft)
03.05.2010 23:40 8,2 C 93 % 1014,8 hPa 1,0 mm 1,1 km/h (1 Bft) SW 222 0 min 0 UV-I 0 W/m 4,8 km/h (1 Bft)
03.05.2010 23:50 8,2 C 93 % 1015,0 hPa 0,5 mm 0,0 km/h (0 Bft) SW 222 0 min 0 UV-I 0 W/m 1,6 km/h (1 Bft)
_ Min-Zeit 06:00 15:10 00:00 - 00:00 - - - - - 00:00
Minimum _ 5,0 C 82 % 1005,9 hPa - 0,0 km/h (0 Bft) - - - - - 0,0 km/h (0 Bft)
_ Max-Zeit 14:40 01:50 23:50 23:10 11:30 - - 07:10 14:20 14:30 21:50
Maximum _ 10,4 C 94 % 1015,0 hPa 1,3 mm 3,2 km/h
W-SW (1 Bft)
- - 10 min 2 UV-I 302 W/m 11,3 km/h
SW (2 Bft)
Durchschnitt _ 8,1 C 91 % 1010,2 hPa #13,0 mm 0,4 km/h (0 Bft) W-SW - #10 min. 1 UV-I 105 W/m 2,8 km/h (1 Bft)